Track COSMOS 2441 now! 10-day predictions COSMOS 2441 is classified as:
1 33272U 08037A 24325.82533463 .00000516 00000-0 13662-3 0 9998 2 33272 98.2605 267.7922 0015236 306.7114 53.2682 14.52739424864783